{"data":{"norad_id":58538,"epoch":"2026-05-25T04:04:36.424128Z","epoch_age_seconds":54134,"freshness":"FRESH","line1":"1 58538U 23192H   26145.16986602  .00000734  00000+0  32859-4 0  9996","line2":"2 58538  53.1618  66.8770 0001271  91.5218 268.5930 15.34390815137706","mean_motion":15.34390815,"eccentricity":0.0001271,"inclination_deg":53.1618,"raan_deg":66.877,"arg_perigee_deg":91.5218,"mean_anomaly_deg":268.593,"bstar":3.2859e-5,"rev_number":13770,"period_min":93.848319862368,"perigee_km":461.86106583459,"apogee_km":463.60001436328,"semimajor_km":6840.8675400989,"source":"CELESTRAK","updated_at":"2026-05-25T13:38:18.661596Z"}}